User: anonymous   Login
Location: ??????
(55.6500°N, 37.8000°E)
Time: 14:57:56
(UTC+00:00)
Language:

Cosmos 1624 Rocket - Orbit

View from above orbital plane
View from above orbital plane
View from above satellite
View from above satellite

Ground track
Ground track

The orbit data is extracted from the following two-line orbital elements,

1 15483U 85006B   24177.56723069  .00000351  00000-0  12691-3 0  9990
2 15483  74.0466 325.3365 0018147  31.7031  48.9233 14.37078320 64906
Epoch (UTC): 25 June 2024 13:36:48
Eccentricity: 0.0018147
inclination: 74.0466°
perigee height: 755 km
apogee height: 781 km
right ascension of ascending node: 325.3365°
argument of perigee: 31.7031°
revolutions per day: 14.37078320
mean anomaly at epoch: 48.9233°
orbit number at epoch: 6490

The dashed part of the orbit path shows where the satellite is in the earth's shadow,  

DLR